Back to catalog

FENGYUN 1C DEB

AliveSSO
NORAD 30937·DEBRIS·🇨🇳 China

Launched May 10, 1999 from Taiyuan Satellite Launch Center

Loading…

Next Passes (next 24 hours)

TLE

FreshSource: Space-Track

Epoch: Sep 14, 2026, 10:36 UTC

1 30937U 99025BAB 26257.44175147  .00000210  00000-0  18183-3 0  9999
2 30937  99.0506 310.3882 0075323  18.8806 353.9507 13.95651819995620

Track FENGYUN 1C DEB in real time with AllMySat

Download on the App Store